Weather Roundup
Issued by NWS

Home | Current Version | Previous Version | Graphics & Text | Print | Product List | Glossary Off
Versions: 1 2 3 4 5 6 7 8 9 10 11 12 13 14 15 16 17 18 19 20 21 22 23 24 25 26 27 28 29 30 31 32 33 34 35 36 37 38 39 40 41 42 43 44 45 46 47 48 49 50

000
NZUS93 KARX 011710
HRRWXR

CURRENT HOURLY OBSERVATIONS ACROSS
MUCH OF THE UPPER MISSISSIPPI VALLEY
NATIONAL WEATHER SERVICE LA CROSSE WI
1200 PM CDT TUE SEP 01 2015


...SOUTHEAST MINNESOTA...


CITY           SKY/WX    TMP DP  RH WIND       PRES   REMARKS
ROCHESTER      MOSUNNY   81  73  76 S10       29.96F
ROCHESTER/MAYO FAIR      81  72  74 S6        29.95F
WINONA         MOSUNNY   82  70  65 CALM      29.94S
AUSTIN         SUNNY     81  72  74 S6        29.95F
ALBERT LEA     SUNNY     81  72  74 S7        29.93F
DODGE CENTER   SUNNY     81  73  78 S6        29.95F
PRESTON        MOSUNNY   80  71  73 S10       29.98S
OWATONNA       SUNNY     82  72  69 SE5       29.93F
FARIBAULT      SUNNY     82  73  74 SE6       29.93F
$$

...ELSEWHERE IN MINNESOTA...


CITY           SKY/WX    TMP DP  RH WIND       PRES   REMARKS
MINNEAPOLIS    PTSUNNY   82  70  66 S6        29.91F
INTNL FALLS    PTSUNNY   75  55  49 SW6       29.91R
DULUTH         CLOUDY    77  68  73 VRB7      29.92S
RED WING       MOSUNNY   84  72  65 S5        29.91F
REDWOOD FALLS  CLOUDY    77  70  79 VRB3      29.90S
MANKATO        MOSUNNY   81  72  74 S9        29.91F
WORTHINGTON    PTSUNNY   79  70  73 SE6       29.91F
FAIRMONT       MOSUNNY   79  68  69 S7        29.92S
$$

...SOUTHWEST WISCONSIN...


CITY           SKY/WX    TMP DP  RH WIND       PRES   REMARKS
LA CROSSE      SUNNY     84  71  65 S13       29.94F
PRAIRIE DU CHI SUNNY     83  69  63 S7        29.97S
BOSCOBEL       SUNNY    N/A N/A N/A MISG      29.97F
LONE ROCK      SUNNY     86  72  62 S8        29.98F HX  92
PLATTEVILLE    SUNNY     82  74  77 S8        30.01S
FORT MC COY    SUNNY     85  68  56 S6        29.96F
CAMP DOUGLAS   MOSUNNY   84  73  70 S9        29.96F HX  91
VIROQUA          N/A     83  72  69 S7        29.98F
WIS DELLS      SUNNY     85  65  50 S8        29.99F
$$

...ELSEWHERE IN WISCONSIN...


CITY           SKY/WX    TMP DP  RH WIND       PRES   REMARKS
MILWAUKEE      SUNNY     86  70  58 S10       30.01F HX  90
MADISON        MOSUNNY   85  69  58 S12       29.99F
GREEN BAY      SUNNY     83  73  72 SW5       29.97F HAZE
EAU CLAIRE     MOSUNNY   81  69  67 S6        29.93F
BLACK RVR FLS  FAIR      84  69  59 S3        29.95F
MEDFORD        MOSUNNY   78  68  71 SW8       29.98F
WAUSAU         MOSUNNY   82  71  69 S10       29.96F
WIS RAPIDS     MOSUNNY   85  68  56 VRB6      29.99F
MARSHFIELD     MOSUNNY   81  67  62 SW8       29.98F
RICE LAKE      PTSUNNY   80  68  68 S7        29.95F
$$

...NORTHEAST IOWA...


CITY           SKY/WX    TMP DP  RH WIND       PRES   REMARKS
DECORAH        SUNNY     81  73  78 VRB6G14   29.97F
MASON CITY     SUNNY     81  72  74 S7        29.96F
CHARLES CITY   SUNNY     81  75  83 S8        29.97F
OELWEIN        SUNNY     81  73  78 SW8       29.99F
$$

...ELSEWHERE IN IOWA...


CITY           SKY/WX    TMP DP  RH WIND       PRES   REMARKS
DES MOINES     MOSUNNY   86  69  56 SW13      29.97S HX  90
IOWA CITY      SUNNY     84  71  65 S10       30.01F
FORT DODGE     MOSUNNY   81  70  69 SW10      29.96S
$$

...NORTHERN ILLINOIS...


CITY           SKY/WX    TMP DP  RH WIND       PRES   REMARKS
CHICAGO-OHARE  MOSUNNY   85  73  67 S7        30.04F HX  91
CHICAGO-MIDWAY MOSUNNY   87  72  60 S10       30.05F HX  93
MOLINE         SUNNY     87  71  58 SW9       30.01F HX  93
ROCKFORD       MOSUNNY   86  73  65 SW9       30.04S HX  93
PEORIA         SUNNY     89  73  59 S7        30.06F HX  97
$$

NOTE: "FAIR" INDICATES FEW OR NO CLOUDS BELOW 12,000 FEET WITH NO
SIGNIFICANT WEATHER AND/OR OBSTRUCTIONS TO VISIBILITY. WIND
SPEEDS ARE IN MILES-PER-HOUR.



USA.gov is the U.S. government's official web portal to all federal, state and local government web resources and services.